Regional Weather Roundup
Issued by NWS Boston, MA

Current Version | Previous Version | Text Only | Print | Product List | Glossary Off
Versions: 1 2 3 4 5 6 7 8 9 10 11 12 13 14 15 16 17 18 19 20 21 22 23 24 25 26 27 28 29 30 31 32 33 34 35 36 37 38 39 40 41 42 43 44 45 46 47 48 49 50
000 ASUS41 KBOX 201010 RWRBOX REGIONAL WEATHER ROUNDUP NATIONAL WEATHER SERVICE BOSTON/NORTON MA 500 AM EST SUN JAN 20 2019 NOTE: "FAIR" INDICATES FEW OR NO CLOUDS BELOW 12,000 FEET WITH NO SIGNIFICANT WEATHER AND/OR OBSTRUCTIONS TO VISIBILITY. MAZALL-201100- EASTERN MASSACHUSETTS CITY SKY/WX TMP DP RH WIND PRES REMARKS BOSTON RAIN 35 32 88 E29G38 29.74F VSB 1 WCI 22 BEVERLY SNOW 31 28 89 E14 29.79F VSB 1/2 WCI 21 LAWRENCE SNOW 28 26 92 NE18G30 29.81F VSB 1/2 WCI 15 BEDFORD LGT SNOW 30 26 85 NE14 29.75F VSB 1 WCI 19 BLUE HILL N/A 31 31 100 E30G44 29.66F WCI 16 NORWOOD LGT RAIN 36 33 89 NE15G24 29.73F FOG WCI 27 MARSHFIELD LGT RAIN 37 36 93 NE17G28 29.75F WCI 28 PLYMOUTH HVY RAIN 36 33 89 NE14G25 29.70F FOG WCI 27 TAUNTON LGT RAIN 35 32 88 E12G21 29.67F WCI 27 NEW BEDFORD RAIN 36 36 100 NE10G24 29.69F WCI 28 $$ MAZALL-201100- CAPE COD AND THE ISLANDS CITY SKY/WX TMP DP RH WIND PRES REMARKS FALMOUTH N/A N/A N/A N/A MISG N/A HYANNIS HVY RAIN 42 39 89 E14G22 29.62F FOG CHATHAM HVY RAIN 43 41 93 E14G23 29.66F FOG PROVINCETOWN MIX PCPN 37 36 96 E23G32 29.70F FOG WCI 26 NANTUCKET HVY RAIN 45 44 97 SE24G32 29.63F FOG MARTHAS VNYRD HVY RAIN 40 40 100 NE16 29.61F FOG WCI 31 $$ MAZALL-201100- CENTRAL AND WESTERN MASSACHUSETTS CITY SKY/WX TMP DP RH WIND PRES REMARKS WORCESTER SNOW 19 17 92 NE16G24 29.67F VSB 1/2 WCI 4 FITCHBURG LGT SNOW 17 13 84 N12 29.79F FOG WCI 4 ORANGE LGT SNOW 22 16 78 VRB5 29.75F WCI 16 SPRINGFIELD LGT SNOW 23 21 93 N13 29.70F FOG WCI 11 WESTFIELD MIX PCPN 23 19 85 N16 29.72F FOG WCI 10 NORTH ADAMS LGT SNOW 22 18 85 SE32G43 29.68F VSB 3/4 WCI 3 PITTSFIELD LGT SNOW 23 18 81 NE15G21 29.61F WCI 10 $$ RIZALL-201100- RHODE ISLAND CITY SKY/WX TMP DP RH WIND PRES REMARKS PROVIDENCE RAIN 33 32 96 NE12 29.71F FOG WCI 24 NEWPORT RAIN 36 35 96 NE13G24 29.66F FOG WCI 27 BLOCK ISLAND CLOUDY 39 37 93 E13G24 N/A WCI 32 SMITHFIELD LGT SNOW 32 30 93 NE10G22 29.69F FOG WCI 24 WESTERLY LGT RAIN 37 36 96 NE15G23 29.62F WCI 28 $$ CTZALL-201100- CONNECTICUT CITY SKY/WX TMP DP RH WIND PRES REMARKS BRADLEY INTL LGTSLEET 24 22 91 N16 29.69F VSB 1 WCI 11 HARTFORD LGT SNOW 28 25 88 N15G23 29.69F FOG WCI 16 BRIDGEPORT RAIN 34 31 88 NE16G28 29.59F WCI 24 DANBURY FRZ RAIN 32 30 92 E12G17 29.59F FOG WCI 23 GROTON LGT RAIN 36 35 96 NE18 29.61F WCI 26 NEW HAVEN LGT RAIN 36 33 89 NE15 29.59F WCI 27 CHESTER LGT RAIN 34 32 93 NE7 29.60F WCI 28 MERIDEN FRZ RAIN 31 28 89 NE10G18 29.62F WCI 22 WILLIMANTIC RAIN 33 33 100 NE8 29.67F WCI 26 OXFORD LGT SNOW 30 29 96 NE12G28 29.60F FOG WCI 20 $$ MEZ002-015-021-024-NHZ003-005-008-011-012-014-VTZ005-008-201100- NORTHERN NEW ENGLAND CITY SKY/WX TMP DP RH WIND PRES REMARKS PORTLAND ME LGT SNOW 11 7 84 N12G24 29.97F VSB 3/4 WCI -3 BANGOR ME LGT SNOW 1 -3 83 NE13 30.11F VSB 3/4 WCI -17 CONCORD NH LGT SNOW 13 9 84 NE8 29.87F VSB 1 WCI 2 MANCHESTER NH SNOW 15 11 83 N13 29.83F VSB 1/2 WCI 1 NASHUA NH LGT SNOW 16 14 92 N8 29.83F VSB 3/4 WCI 5 PORTSMOUTH NH LGT SNOW 15 11 85 NE14G22 29.87 VSB 3/4 WCI 0 JAFFREY NH LGT SNOW 15 13 91 N8 29.73F FOG WCI 4 KEENE NH LGT SNOW 18 12 79 NE13G18 29.78F WCI 4 BURLINGTON VT HVY SNOW -4 -9 79 N8 29.87F VSB 1/4 WCI -19 MT. WASHINGTON HVY SNOW 0 0 100 SE46 N/A VSB 1/16WCI -31 $$ NYZ052-076-201100- EASTERN NEW YORK CITY SKY/WX TMP DP RH WIND PRES REMARKS ALBANY SNOW 11 5 77 NW5 29.70F VSB 1/2 WCI 3 NEW YORK CITY LGT RAIN 36 34 92 NE22G29 29.54F WCI 25 $$ ANZALL-201100- MARINE OBSERVATIONS STATION/POSITION TIME TEMP WIND PRES VSBY WAVE AIR SEA DIR/SP/G HT/PER (UTC) (F) (DEG/KT/KT) (MB) (MI) (FT/S) BOSTON BUOY 0950 36 42 70/ 25/ 31 1007.8F 11/ 8 BUZZARDS BAY 0900 37 50/ 26/ 28 1006.4F NANTUCKET SOUND 0950 41 36 100/ 17/ 23 1003.5F 4/ 5 MASS BAY-STELLWA 0904 32 42 80/ 23/ 31 1010.6F 1/4 11/ 8 ISLE OF SHOALS 1000 30 60/ 32/ 37 1009.4F S OF BLOCK IS 1000 45 N/A 7/ 7 $$ ......................KEY......................... SKY/WX - SKY CONDITION/PRESENT WEATHER TMP - TEMPERATURE IN FAHRENHEIT DWPT - DEWPOINT IN FAHRENHEIT RH - RELATIVE HUMIDITY IN PERCENT WIND - DIRECTION AND SPEED IN MPH PRES - MEAN SEA LEVEL PRESSURE IN INCHES OF HG WCI - WIND CHILL INDEX VSB - VISIBILITY IN MILES HX - HEAT INDEX TC - TEMPERATURE IN CELSIUS VRB - VARIABLE WIND DIRECTION N/A - NOT AVAILABLE

USA.gov is the U.S. government's official web portal to all federal, state and local government web resources and services.